x

8413320 - Bar Harbor, Me (atgm1) Weather Station

9:54 - Fri 24th Oct 2014 All times are EDT. -4 hours from GMT.

  • Wind
    7mph, 14mph gusts
  • Sea Temp 54°f
  • Luft Temp 50°f
  • Sea Pressure 1003mb
  • 8413320 - Bar Harbor, Me
  • 8413320 - Bar Harbor, Me

More Historic Weather Station data

Upgrade to MSW Pro to gain access to the past 30 days of data for over 8000 Wavebouys and Weather Stations around the globe.

Join Pro

Comparision Forecast

View Surf forecast
   
Fr 10/24 9:54 7 14 mph 1003mb 54f 50f
9:48 10 14 mph 1003mb 54f 50f
9:42 8 13 mph 1003mb 54f 50f
9:36 10 15 mph 1003mb 54f 50f
9:30 9 15 mph 1003mb 54f 50f
9:24 7 13 mph 1002.9mb 54f 51f
9:18 9 13 mph 1002.9mb 54f 51f
9:12 9 14 mph 1002.9mb 54f 51f
9:06 9 13 mph 1002.8mb 54f 51f
9:00 11 17 mph 1002.8mb 54f 51f
8:54 8 17 mph 1002.8mb 54f 51f
8:48 10 14 mph 1002.8mb 54f 51f
8:42 10 18 mph 1002.8mb 54f 51f
8:36 14 18 mph 1002.9mb 54f 51f
8:30 10 15 mph 1002.9mb 54f 51f
8:24 9 15 mph 1002.9mb 54f 51f
8:18 8 15 mph 1002.9mb 54f 51f
8:12 10 15 mph 1003mb 54f 51f
8:06 7 15 mph 1003mb 54f 51f
8:00 11 14 mph 1003mb 54f 51f
7:54 11 17 mph 1003.1mb 54f 51f
7:48 7 13 mph 1003mb 54f 51f
7:42 8 16 mph 1002.9mb 54f 51f
7:36 11 16 mph 1002.9mb 54f 51f
7:30 10 15 mph 1002.9mb 54f 51f
7:24 9 14 mph 1002.9mb 54f 51f
7:18 8 14 mph 1002.8mb 54f 51f
7:12 9 15 mph 1002.8mb 54f 51f
7:06 8 14 mph 1002.7mb 54f 51f
7:00 10 15 mph 1002.8mb 54f 51f
6:54 8 11 mph 1002.9mb 54f 50f
6:48 7 14 mph 1003mb 54f 50f
6:42 6 11 mph 1003mb 54f 50f
6:36 7 14 mph 1003.1mb 54f 50f
6:30 8 13 mph 1003.1mb 54f 50f
6:24 10 14 mph 1003.1mb 54f 51f
6:18 6 11 mph 1003.1mb 54f 51f
6:12 6 13 mph 1003.2mb 54f 50f
6:06 7 13 mph 1003.3mb 54f 51f
6:00 8 13 mph 1003.3mb 54f 51f
5:54 9 13 mph 1003.3mb 54f 51f
5:48 7 10 mph 1003.2mb 54f 51f
5:42 7 10 mph 1003.1mb 54f 51f
5:36 8 10 mph 1003mb 54f 51f
5:30 5 10 mph 1003.1mb 54f 51f
5:24 7 14 mph 1003.2mb 53f 51f
5:18 9 15 mph 1003.2mb 54f 51f
5:12 9 14 mph 1003.2mb 54f 51f
5:06 6 17 mph 1003.1mb 54f 51f
5:00 11 14 mph 1003.1mb 54f 51f
4:54 7 16 mph 1003.2mb 54f 51f
4:48 9 16 mph 1003.2mb 54f 51f
4:42 10 15 mph 1003.3mb 54f 51f
4:36 9 16 mph 1003.4mb 54f 51f
4:30 6 17 mph 1003.5mb 54f 51f
4:24 9 16 mph 1003.5mb 54f 51f
4:18 11 17 mph 1003.4mb 54f 51f
4:12 7 14 mph 1003.4mb 54f 51f
4:06 10 16 mph 1003.3mb 54f 51f
4:00 11 16 mph 1003.2mb 54f 51f
3:54 10 21 mph 1003.3mb 54f 51f
3:48 9 15 mph 1003.3mb 54f 51f
3:42 10 20 mph 1003.3mb 54f 51f
3:36 11 17 mph 1003.2mb 54f 51f
3:30 9 15 mph 1003.2mb 54f 52f
3:24 13 17 mph 1003.2mb 54f 52f
3:18 13 17 mph 1003.3mb 54f 52f
3:12 13 17 mph 1003.4mb 54f 52f
3:06 13 16 mph 1003.4mb 54f 52f
3:00 10 14 mph 1003.6mb 54f 52f
2:54 11 16 mph 1003.7mb 54f 52f
2:48 14 16 mph 1003.8mb 54f 52f
2:42 11 14 mph 1003.8mb 54f 52f
2:36 10 15 mph 1004mb 54f 52f
2:30 10 15 mph 1004.1mb 54f 52f
2:24 13 15 mph 1004.1mb 54f 52f
2:18 9 14 mph 1004.1mb 54f 52f
2:12 8 10 mph 1004.1mb 54f 52f
2:06 7 14 mph 1004.1mb 54f 52f
2:00 9 13 mph 1004.1mb 54f 52f
1:54 9 15 mph 1004.2mb 54f 52f
1:48 11 17 mph 1004.3mb 54f 52f
1:42 8 13 mph 1004.2mb 54f 52f
1:36 10 14 mph 1004.3mb 54f 52f
1:30 9 13 mph 1004.3mb 54f 52f
1:24 1 6 mph 1003.6mb 54f 52f
1:18 3 11 mph 1003.5mb 54f 52f
1:12 9 11 mph 1003.9mb 54f 52f
1:06 9 14 mph 1004.2mb 54f 52f
1:00 8 10 mph 1004mb 54f 52f
12:54 6 20 mph 1003.6mb 54f 51f
12:48 8 21 mph 1003.2mb 54f 51f
12:42 15 24 mph 1002.7mb 54f 51f
12:36 16 21 mph 1003.7mb 54f 52f
12:30 10 16 mph 1003.6mb 54f 51f
12:24 14 17 mph 1004.1mb 54f 52f
12:18 14 17 mph 1004.3mb 54f 51f
12:12 9 15 mph 1004.4mb 54f 52f
12:06 10 15 mph 1004.6mb 54f 51f
12:00 9 13 mph 1004.8mb 54f 51f
Do 10/23 11:54 11 14 mph 1004.8mb 54f 51f
11:48 9 13 mph 1004.8mb 54f 51f
11:42 6 14 mph 1004.9mb 54f 51f
11:36 13 18 mph 1004.3mb 54f 51f
11:30 14 21 mph 1004.4mb 54f 51f
11:24 18 26 mph 1004.8mb 54f 51f
11:18 17 23 mph 1004.7mb 54f 51f
11:12 15 20 mph 1004.8mb 54f 51f
11:06 15 26 mph 1005.2mb 54f 51f
11:00 18 26 mph 1004.4mb 54f 51f
10:54 16 22 mph 1004.3mb 54f 51f
10:48 18 23 mph 1004.8mb 54f 51f
10:42 16 23 mph 1005mb 54f 51f
10:36 18 24 mph 1005.2mb 54f 51f
10:30 17 21 mph 1005.5mb 54f 51f
10:24 18 23 mph 1005.6mb 54f 51f
10:18 18 22 mph 1005.5mb 54f 51f
10:12 16 21 mph 1005.6mb 54f 51f
10:06 16 20 mph 1005.9mb 54f 51f
10:00 14 20 mph 1006.1mb 54f 51f
9:54 14 21 mph 1006mb 54f 51f
9:48 14 18 mph 1006.1mb 54f 51f
9:42 16 21 mph 1006.2mb 54f 51f
9:36 14 18 mph 1006.2mb 54f 51f
9:30 15 21 mph 1006.4mb 54f 51f
9:24 15 18 mph 1006.5mb 54f 51f
9:18 14 20 mph 1006.5mb 54f 51f
9:12 14 17 mph 1006.6mb 54f 52f
9:06 15 20 mph 1006.6mb 54f 52f
9:00 13 16 mph 1006.7mb 54f 51f
8:54 11 17 mph 1006.7mb 54f 51f
8:48 14 18 mph 1006.8mb 54f 51f
8:42 14 16 mph 1006.9mb 54f 52f
8:36 10 17 mph 1006.9mb 54f 52f
8:30 14 17 mph 1007mb 54f 52f
8:24 14 18 mph 1007.1mb 54f 52f
8:18 15 20 mph 1007.2mb 54f 52f
8:12 14 20 mph 1007.2mb 54f 52f
8:06 13 16 mph 1007.2mb 54f 52f
8:00 13 17 mph 1007.3mb 54f 52f
7:54 15 20 mph 1007.2mb 54f 52f
7:48 15 18 mph 1007.2mb 54f 52f
7:42 14 18 mph 1007.3mb 54f 52f
7:36 14 21 mph 1007.5mb 54f 52f
7:30 14 18 mph 1007.6mb 54f 52f
7:24 16 29 mph 1007.5mb 54f 52f
7:18 15 20 mph 1007.5mb 54f 52f
7:12 14 20 mph 1007.6mb 54f 52f
7:06 14 22 mph 1007.6mb 54f 52f
7:00 13 20 mph 1007.6mb 54f 52f
6:54 13 20 mph 1007.7mb 54f 52f
6:48 10 18 mph 1007.8mb 54f 52f
6:42 14 25 mph 1008mb 54f 52f
6:36 18 22 mph 1008mb 54f 52f
6:30 15 22 mph 1008.1mb 54f 52f
6:24 14 18 mph 1007.9mb 54f 52f
6:18 15 22 mph 1007.7mb 54f 52f
6:12 13 20 mph 1007.6mb 54f 52f
6:06 13 18 mph 1007.7mb 54f 52f
6:00 18 24 mph 1007.6mb 54f 52f
5:54 17 22 mph 1007.4mb 54f 52f
5:48 15 25 mph 1007.5mb 54f 53f
5:42 17 26 mph 1007.6mb 54f 53f
5:36 16 28 mph 1007.5mb 54f 53f
5:30 18 30 mph 1007.4mb 54f 53f
5:24 22 29 mph 1007.3mb 54f 53f
5:18 25 32 mph 1007.3mb 54f 52f
5:12 24 32 mph 1007.2mb 54f 52f
5:06 24 30 mph 1007.4mb 54f 51f
5:00 24 34 mph 1007.5mb 54f 51f
4:54 23 30 mph 1007.6mb 54f 51f
4:48 17 28 mph 1007.7mb 54f 51f
4:42 20 24 mph 1007.7mb 54f 51f
4:36 16 24 mph 1007.6mb 54f 51f
4:30 20 31 mph 1007.7mb 54f 51f
4:24 24 29 mph 1007.6mb 54f 51f
4:18 23 29 mph 1007.8mb 54f 51f
4:12 22 31 mph 1007.8mb 54f 51f
4:06 24 31 mph 1007.7mb 54f 52f
4:00 23 29 mph 1007.9mb 54f 52f
3:54 22 32 mph 1008.1mb 54f 52f
3:48 22 34 mph 1008.2mb 54f 52f
3:42 23 38 mph 1008.2mb 54f 52f
3:36 24 32 mph 1008.2mb 54f 52f
3:30 24 30 mph 1008.2mb 54f 52f
3:24 23 29 mph 1008.1mb 54f 52f
3:18 24 34 mph 1008.2mb 54f 52f
3:12 22 29 mph 1008.2mb 54f 52f
3:06 18 29 mph 1008.4mb 54f 52f
3:00 21 31 mph 1008.3mb 54f 53f
2:54 24 30 mph 1008.4mb 54f 53f
2:48 22 32 mph 1008.3mb 54f 53f
2:42 23 33 mph 1008.3mb 54f 53f
2:36 20 28 mph 1008.4mb 54f 53f
2:30 21 32 mph 1008.5mb 54f 53f
2:24 23 32 mph 1008.4mb 54f 53f
2:18 20 28 mph 1008.5mb 54f 53f
2:12 21 30 mph 1008.5mb 54f 53f
2:06 26 33 mph 1008.6mb 54f 53f
2:00 23 30 mph 1008.6mb 54f 53f
1:54 18 31 mph 1008.7mb 54f 53f
1:48 26 33 mph 1008.7mb 54f 53f
1:42 25 32 mph 1008.8mb 54f 53f
1:36 21 31 mph 1008.9mb 54f 53f
1:30 23 29 mph 1009mb 54f 53f
1:24 24 30 mph 1009mb 54f 53f
1:18 22 34 mph 1009mb 54f 53f
1:12 22 29 mph 1009.2mb 54f 53f
1:06 23 29 mph 1009.2mb 54f 53f
1:00 26 33 mph 1009.4mb 54f 53f
12:54 22 33 mph 1009.5mb 54f 53f
12:48 23 29 mph 1009.6mb 54f 53f
12:42 24 31 mph 1009.7mb 54f 53f
12:36 21 29 mph 1010mb 54f 53f
12:30 21 31 mph 1010.1mb 54f 53f
12:24 22 29 mph 1010mb 54f 53f
12:18 22 31 mph 1010.1mb 54f 53f
12:12 17 23 mph 1010.2mb 54f 53f
12:06 21 26 mph 1010.2mb 54f 53f
12:00 21 29 mph 1010.2mb 54f 53f
11:54 23 29 mph 1010.1mb 54f 53f
11:48 23 29 mph 1010.2mb 54f 53f
11:42 29 37 mph 1010.1mb 54f 53f
11:36 22 31 mph 1010.3mb 54f 53f
11:30 15 23 mph 1010.5mb 54f 53f
11:24 18 25 mph 1010.7mb 54f 53f
11:18 21 30 mph 1010.6mb 54f 52f
11:12 20 24 mph 1010.7mb 54f 52f
11:06 22 29 mph 1010.6mb 54f 52f
11:00 22 28 mph 1010.5mb 54f 52f
10:54 24 32 mph 1010.6mb 54f 52f
10:48 25 32 mph 1010.5mb 54f 52f
10:42 24 32 mph 1010.6mb 54f 52f
10:36 25 36 mph 1010.6mb 54f 52f
10:30 24 29 mph 1010.9mb 54f 53f
10:24 25 31 mph 1010.9mb 54f 53f
10:18 26 32 mph 1011.2mb 54f 53f
10:12 22 31 mph 1011.4mb 53f 53f
10:06 28 33 mph 1011.2mb 54f 53f
10:00 24 38 mph 1011.1mb 54f 53f
9:54 30 37 mph 1010.9mb 54f 53f
9:48 31 39 mph 1011.1mb 54f 53f
9:42 29 37 mph 1011mb 54f 53f
9:36 26 34 mph 1011.1mb 54f 53f
9:30 28 34 mph 1011.2mb 54f 53f
9:24 23 30 mph 1011.4mb 54f 53f
9:18 26 31 mph 1011.5mb 54f 53f
9:12 22 31 mph 1011.5mb 53f 53f
9:06 25 34 mph 1011.2mb 53f 53f
9:00 28 34 mph 1011.1mb 53f 53f
8:54 24 33 mph 1011.4mb 53f 53f
8:48 25 30 mph 1011.4mb 53f 53f
8:42 21 31 mph 1011.4mb 53f 53f
8:36 22 32 mph 1011.5mb 53f 52f
8:30 24 34 mph 1011.6mb 53f 52f
8:24 24 33 mph 1011.7mb 53f 52f
8:18 25 34 mph 1011.7mb 53f 53f
8:12 23 30 mph 1011.8mb 53f 53f
8:06 23 30 mph 1011.9mb 54f 53f
8:00 21 31 mph 1012mb 54f 52f
7:54 22 30 mph 1012mb 54f 52f
7:48 22 28 mph 1012.1mb 53f 52f
7:42 21 29 mph 1012.1mb 53f 52f
7:36 21 28 mph 1012.1mb 53f 52f
7:30 22 29 mph 1012.1mb 53f 52f
7:24 23 31 mph 1012.1mb 53f 52f
7:18 18 25 mph 1012.1mb 53f 52f
7:12 20 29 mph 1012.1mb 53f 52f
7:06 20 25 mph 1012.2mb 53f 52f
7:00 22 28 mph 1012.2mb 53f 52f
6:54 21 25 mph 1012.1mb 53f 52f
6:48 18 26 mph 1012.2mb 53f 52f
6:42 22 29 mph 1012.2mb 53f 52f
6:36 22 31 mph 1012.1mb 53f 52f
6:30 23 30 mph 1012.1mb 53f 52f
6:24 21 29 mph 1012.2mb 53f 52f
6:18 22 29 mph 1012.2mb 53f 52f
6:12 22 29 mph 1012.3mb 53f 52f
6:06 22 28 mph 1012.4mb 53f 52f
6:00 22 30 mph 1012.5mb 53f 52f
5:54 20 29 mph 1012.6mb 53f 51f
5:48 22 26 mph 1012.6mb 53f 51f
5:42 20 25 mph 1012.7mb 53f 51f
5:36 20 28 mph 1012.7mb 53f 51f
5:30 20 33 mph 1012.6mb 53f 51f
5:24 21 28 mph 1012.7mb 53f 51f
5:18 22 37 mph 1012.7mb 53f 51f
5:12 24 29 mph 1012.8mb 54f 51f
5:06 21 31 mph 1012.7mb 54f 51f
5:00 22 29 mph 1012.6mb 53f 51f
4:54 22 31 mph 1012.7mb 53f 51f
4:48 20 26 mph 1012.7mb 53f 51f
4:42 21 26 mph 1012.9mb 53f 51f
4:36 20 29 mph 1013mb 53f 51f
4:30 22 30 mph 1013.2mb 53f 51f
4:24 17 25 mph 1013.4mb 53f 51f
4:18 17 23 mph 1013.5mb 53f 51f
4:12 15 23 mph 1013.4mb 53f 51f
4:06 17 24 mph 1013.6mb 53f 51f
4:00 18 22 mph 1013.6mb 53f 51f
3:54 23 30 mph 1013.8mb 53f 51f
3:48 16 24 mph 1013.8mb 53f 51f
3:42 18 23 mph 1013.9mb 53f 51f
3:36 15 22 mph 1014mb 53f 51f
3:30 21 26 mph 1014.1mb 53f 51f
3:24 20 28 mph 1014mb 53f 51f
3:18 22 32 mph 1013.9mb 54f 51f
3:12 22 28 mph 1014mb 54f 51f
3:06 21 30 mph 1014mb 54f 51f
3:00 23 31 mph 1014mb 54f 51f
2:54 25 33 mph 1014.1mb 54f 51f
2:48 24 32 mph 1014.3mb 54f 51f
2:42 23 31 mph 1014.5mb 54f 51f
2:36 22 32 mph 1014.6mb 54f 51f
2:30 21 25 mph 1014.7mb 54f 51f
2:24 20 30 mph 1014.9mb 54f 51f
2:18 20 24 mph 1015.1mb 54f 51f
2:12 16 22 mph 1015.2mb 54f 51f
2:06 16 22 mph 1015.3mb 54f 50f
2:00 15 22 mph 1015.3mb 54f 50f
1:54 18 25 mph 1015.4mb 54f 50f
1:48 15 25 mph 1015.7mb 54f 50f
1:42 14 21 mph 1015.8mb 54f 50f
1:36 13 20 mph 1016mb 54f 50f
1:30 15 17 mph 1016mb 54f 50f
1:24 15 22 mph 1016.1mb 54f 49f
1:18 15 18 mph 1016.1mb 54f 49f
1:12 18 24 mph 1016.2mb 54f 49f
1:06 16 23 mph 1016.2mb 54f 49f
1:00 15 20 mph 1016.2mb 54f 49f
12:54 16 22 mph 1016.3mb 54f 49f
12:48 16 24 mph 1016.4mb 54f 49f
12:42 17 22 mph 1016.5mb 54f 49f
12:36 18 23 mph 1016.6mb 54f 49f
12:30 15 23 mph 1016.8mb 54f 49f
12:24 16 22 mph 1016.7mb 54f 49f
12:18 15 20 mph 1016.9mb 54f 49f
12:12 17 25 mph 1017mb 54f 49f
12:06 14 23 mph 1017.1mb 54f 49f
12:00 13 20 mph 1017.2mb 54f 49f
Mi 10/22 11:54 17 24 mph 1017.2mb 54f 49f
11:48 17 24 mph 1017.3mb 54f 49f
11:42 14 22 mph 1017.5mb 54f 49f
11:36 13 24 mph 1017.7mb 54f 49f
11:30 15 23 mph 1017.8mb 54f 49f
11:24 18 29 mph 1017.6mb 54f 49f
11:18 18 28 mph 1017.7mb 54f 49f
11:12 18 24 mph 1017.9mb 54f 48f
11:06 16 26 mph 1018mb 54f 49f
11:00 20 25 mph 1017.9mb 54f 49f
10:54 23 30 mph 1018.1mb 54f 49f
10:48 16 24 mph 1018.1mb 54f 49f
10:42 21 29 mph 1018.2mb 54f 49f
10:36 23 31 mph 1018mb 54f 49f
10:30 24 34 mph 1017.8mb 54f 48f
10:24 22 32 mph 1018mb 54f 49f
10:18 22 32 mph 1018.1mb 54f 48f
10:12 20 29 mph 1018.1mb 54f 49f
10:06 18 26 mph 1018.2mb 54f 48f
10:00 13 21 mph 1018.4mb 54f 48f
9:54 17 23 mph 1018.5mb 54f 49f
9:48 20 25 mph 1018.4mb 54f 48f
9:42 20 29 mph 1018.5mb 54f 48f
9:36 16 34 mph 1018.3mb 54f 48f
9:30 16 25 mph 1018.2mb 54f 48f
9:24 16 29 mph 1018.1mb 54f 48f
9:18 15 29 mph 1018.1mb 54f 48f
9:12 21 29 mph 1018.2mb 54f 48f
9:06 17 24 mph 1018.2mb 54f 48f
9:00 18 31 mph 1018.3mb 54f 48f
8:54 20 30 mph 1018.4mb 54f 48f
8:48 21 28 mph 1018.5mb 54f 48f
8:42 20 32 mph 1018.7mb 54f 48f
8:36 16 23 mph 1018.9mb 54f 48f
8:30 16 24 mph 1019mb 54f 48f
8:24 15 22 mph 1019.2mb 54f 48f
8:18 15 23 mph 1019.4mb 54f 48f
8:12 15 22 mph 1019.5mb 54f 48f
8:06 14 21 mph 1019.4mb 54f 48f
8:00 15 24 mph 1019.5mb 54f 48f
7:54 14 18 mph 1019.6mb 54f 48f
7:48 10 18 mph 1019.8mb 54f 48f
7:42 9 15 mph 1020mb 54f 48f
7:36 11 24 mph 1020mb 54f 48f
7:30 14 24 mph 1020.1mb 54f 48f
7:24 14 16 mph 1020.2mb 54f 48f
7:18 10 18 mph 1020.1mb 54f 48f
7:12 15 21 mph 1020.2mb 54f 48f
7:06 13 17 mph 1020.2mb 54f 48f
7:00 16 20 mph 1020.3mb 54f 48f
6:54 13 17 mph 1020.3mb 54f 48f
6:48 9 18 mph 1020.3mb 54f 48f
6:42 10 17 mph 1020.4mb 54f 48f
6:36 13 18 mph 1020.4mb 54f 48f
6:30 10 17 mph 1020.4mb 54f 48f
6:24 6 21 mph 1020.4mb 54f 48f
6:18 11 22 mph 1020.4mb 54f 48f
6:12 14 23 mph 1020.4mb 54f 48f
6:06 18 24 mph 1020.4mb 54f 48f
6:00 15 21 mph 1020.4mb 54f 48f
5:54 15 21 mph 1020.4mb 54f 48f
5:48 17 22 mph 1020.5mb 54f 48f
5:42 15 25 mph 1020.4mb 54f 49f
5:36 17 22 mph 1020.4mb 54f 48f
5:30 14 21 mph 1020.4mb 54f 48f
5:24 14 24 mph 1020.2mb 54f 48f
5:18 15 32 mph 1020.3mb 54f 48f
5:12 17 23 mph 1020.3mb 54f 48f
5:06 17 28 mph 1020.3mb 54f 48f
5:00 14 18 mph 1020.5mb 54f 48f
4:54 13 23 mph 1020.5mb 54f 48f
4:48 14 22 mph 1020.3mb 54f 48f
4:42 18 29 mph 1020.3mb 54f 48f
4:36 17 24 mph 1020.3mb 54f 48f
4:30 18 26 mph 1020.2mb 54f 48f
4:24 15 23 mph 1020.1mb 54f 48f
4:18 18 29 mph 1020mb 54f 49f
4:12 20 25 mph 1019.9mb 54f 49f
4:06 22 31 mph 1019.8mb 54f 49f
4:00 17 32 mph 1019.8mb 54f 49f
3:54 20 32 mph 1019.6mb 54f 49f
3:48 22 30 mph 1019.6mb 54f 49f
3:42 20 28 mph 1019.5mb 54f 49f
3:36 21 30 mph 1019.4mb 54f 49f
3:30 20 26 mph 1019.4mb 54f 49f
3:24 20 36 mph 1019.1mb 54f 49f
3:18 22 32 mph 1019.1mb 54f 49f
3:12 22 33 mph 1019.3mb 54f 49f
3:06 21 31 mph 1019.5mb 54f 49f
3:00 21 30 mph 1019.6mb 54f 49f
2:54 24 31 mph 1019.4mb 54f 49f
2:48 18 31 mph 1019.4mb 54f 49f
2:42 23 31 mph 1019.2mb 54f 49f
2:36 22 30 mph 1019.4mb 54f 49f
2:30 21 31 mph 1019.4mb 54f 49f
2:24 28 34 mph 1019.2mb 54f 49f
2:18 21 30 mph 1019.3mb 54f 49f
2:12 24 30 mph 1019.3mb 54f 49f
2:06 22 30 mph 1019.3mb 54f 48f
2:00 21 33 mph 1019.2mb 54f 48f
1:54 22 32 mph 1019.3mb 54f 48f
1:48 22 33 mph 1019.6mb 54f 48f
1:42 23 31 mph 1019.7mb 54f 48f
1:36 22 30 mph 1019.6mb 54f 48f
1:30 21 29 mph 1019.8mb 54f 48f
1:24 18 29 mph 1019.8mb 54f 48f
1:18 18 28 mph 1019.9mb 54f 48f
1:12 20 26 mph 1020mb 54f 48f
1:06 21 26 mph 1020.2mb 54f 48f
1:00 20 29 mph 1020.1mb 54f 49f
12:54 20 32 mph 1020mb 54f 49f
12:48 20 25 mph 1019.9mb 54f 49f
12:42 18 23 mph 1020mb 54f 49f
12:36 15 28 mph 1020.1mb 54f 49f
12:30 18 24 mph 1020.1mb 54f 49f
12:24 20 25 mph 1020.2mb 54f 49f
12:18 22 28 mph 1020.2mb 54f 49f
12:12 21 33 mph 1020.2mb 54f 49f
12:06 22 30 mph 1020.2mb 54f 49f
12:00 16 31 mph 1020.3mb 54f 49f
11:54 18 23 mph 1020.4mb 54f 49f
11:48 22 28 mph 1020.6mb 54f 49f
11:42 18 29 mph 1020.8mb 54f 50f
11:36 20 28 mph 1020.8mb 54f 50f
11:30 20 26 mph 1020.8mb 54f 50f
11:24 16 21 mph 1020.8mb 54f 50f
11:18 14 24 mph 1020.9mb 54f 50f
11:12 14 24 mph 1020.8mb 54f 50f
11:06 17 25 mph 1020.8mb 54f 50f
11:00 17 26 mph 1020.8mb 54f 50f
10:54 17 28 mph 1020.7mb 54f 50f
10:48 17 28 mph 1020.6mb 54f 50f
10:42 17 26 mph 1020.5mb 54f 50f
10:36 18 26 mph 1020.5mb 54f 50f
10:30 20 26 mph 1020.7mb 54f 50f
10:24 18 28 mph 1020.9mb 54f 50f
10:18 18 24 mph 1020.9mb 54f 50f
10:12 20 26 mph 1021.1mb 54f 50f
10:06 15 23 mph 1021.1mb 54f 50f
10:00 17 24 mph 1021.2mb 54f 49f
9:54 20 28 mph 1021.3mb 54f 49f
9:48 16 24 mph 1021.3mb 54f 49f
9:42 17 22 mph 1021.5mb 54f 49f
9:36 20 28 mph 1021.6mb 54f 49f
9:30 20 23 mph 1021.5mb 54f 49f
9:24 15 22 mph 1021.5mb 54f 49f
9:18 16 23 mph 1021.5mb 54f 49f
9:12 17 26 mph 1021.5mb 54f 49f
9:06 18 28 mph 1021.5mb 54f 49f
9:00 21 26 mph 1021.4mb 54f 49f
8:54 18 25 mph 1021.5mb 54f 49f
8:48 20 24 mph 1021.3mb 54f 49f
8:42 21 28 mph 1021.2mb 54f 49f
8:36 20 25 mph 1021.1mb 54f 49f
8:30 18 28 mph 1021mb 54f 49f
8:24 14 24 mph 1021mb 54f 49f
8:18 17 24 mph 1021.1mb 54f 49f
8:12 16 24 mph 1021.3mb 54f 49f
8:06 16 25 mph 1021.3mb 54f 49f
8:00 16 24 mph 1021.3mb 54f 49f
7:54 21 25 mph 1021.3mb 54f 48f
7:48 20 30 mph 1021.2mb 54f 48f
7:42 18 24 mph 1021.4mb 54f 49f
7:36 17 22 mph 1021.5mb 54f 49f
7:30 15 25 mph 1021.4mb 54f 49f
7:24 15 18 mph 1021.4mb 54f 49f
7:18 14 20 mph 1021.5mb 54f 49f
7:12 13 21 mph 1021.4mb 54f 49f
7:06 15 21 mph 1021.2mb 54f 49f
7:00 11 18 mph 1021.1mb 54f 49f
6:54 13 20 mph 1021.1mb 54f 49f
6:48 10 22 mph 1021.2mb 54f 49f
6:42 11 17 mph 1021.3mb 54f 49f
6:36 11 18 mph 1021.2mb 54f 49f
6:30 11 21 mph 1021.2mb 54f 49f
6:24 11 21 mph 1021.1mb 54f 49f
6:18 8 15 mph 1021.2mb 54f 49f
6:12 8 16 mph 1021.2mb 54f 49f
6:06 13 18 mph 1021.2mb 54f 49f
6:00 14 18 mph 1021.2mb 54f 49f
5:54 11 17 mph 1021.2mb 54f 49f
5:48 14 20 mph 1021.1mb 54f 49f
5:42 13 18 mph 1021.1mb 54f 50f
5:36 13 16 mph 1021mb 54f 50f
5:30 15 20 mph 1020.9mb 54f 50f
5:24 13 20 mph 1020.8mb 54f 50f
5:18 16 21 mph 1020.8mb 54f 50f
5:12 14 18 mph 1020.8mb 54f 50f
5:06 16 23 mph 1020.8mb 54f 50f
5:00 11 18 mph 1020.8mb 54f 50f
4:54 13 15 mph 1020.7mb 54f 50f
4:48 14 18 mph 1020.6mb 54f 50f
4:42 16 21 mph 1020.5mb 54f 50f
4:36 11 17 mph 1020.5mb 54f 50f
4:30 15 21 mph 1020.4mb 54f 50f
4:24 14 18 mph 1020.3mb 54f 51f
4:18 13 16 mph 1020.3mb 54f 51f
4:12 15 22 mph 1020.3mb 54f 51f
4:06 13 20 mph 1020.2mb 54f 50f
4:00 11 20 mph 1020.1mb 54f 50f
3:54 14 20 mph 1020.2mb 54f 51f
3:48 13 18 mph 1020.2mb 54f 51f
3:42 13 18 mph 1020.1mb 54f 51f
3:36 10 15 mph 1020.1mb 54f 50f
3:30 11 16 mph 1020.2mb 54f 50f
3:24 10 17 mph 1020.2mb 54f 50f
3:18 14 18 mph 1020.3mb 54f 50f
3:12 11 21 mph 1020.3mb 54f 50f
3:06 11 18 mph 1020.2mb 54f 50f
3:00 10 17 mph 1020.3mb 54f 50f
2:54 16 20 mph 1020.4mb 54f 50f
2:48 13 18 mph 1020.5mb 54f 50f
2:42 15 20 mph 1020.5mb 54f 50f
2:36 16 20 mph 1020.4mb 54f 50f
2:30 14 22 mph 1020.4mb 54f 50f
2:24 16 20 mph 1020.4mb 55f 50f
2:18 15 21 mph 1020.5mb 55f 50f
2:12 17 22 mph 1020.5mb 55f 50f
2:06 16 22 mph 1020.4mb 55f 50f
2:00 16 22 mph 1020.4mb 55f 50f
1:54 16 21 mph 1020.5mb 55f 50f
1:48 13 18 mph 1020.6mb 55f 50f
1:42 13 17 mph 1020.6mb 54f 50f
1:36 11 16 mph 1020.6mb 55f 50f
1:30 10 20 mph 1020.6mb 55f 50f
1:24 10 15 mph 1020.7mb 55f 50f
1:18 8 17 mph 1020.8mb 55f 50f
1:12 11 20 mph 1020.8mb 55f 50f
1:06 11 18 mph 1020.9mb 55f 50f
1:00 11 16 mph 1020.8mb 55f 50f
12:54 14 18 mph 1020.8mb 55f 50f
12:48 16 22 mph 1020.9mb 55f 50f
12:42 14 17 mph 1021mb 55f 50f
12:36 16 18 mph 1021mb 55f 50f
12:30 9 17 mph 1020.9mb 55f 51f
12:24 10 20 mph 1021mb 55f 51f
12:18 14 21 mph 1020.9mb 55f 51f
12:12 15 22 mph 1020.8mb 55f 51f
12:06 16 21 mph 1020.8mb 55f 51f
12:00 17 22 mph 1020.7mb 55f 51f
Di 10/21 11:54 15 18 mph 1020.6mb 55f 51f
11:48 16 21 mph 1020.6mb 55f 51f
11:42 14 23 mph 1020.6mb 55f 51f
11:36 14 21 mph 1020.6mb 55f 51f
11:30 15 20 mph 1020.6mb 55f 51f
11:24 16 20 mph 1020.6mb 55f 51f
11:18 15 23 mph 1020.6mb 55f 51f
11:12 17 21 mph 1020.6mb 55f 51f
11:06 15 22 mph 1020.7mb 55f 51f
11:00 14 18 mph 1020.4mb 55f 51f
10:54 14 21 mph 1020.4mb 55f 51f
10:48 15 18 mph 1020.4mb 55f 51f
10:42 11 16 mph 1020.4mb 55f 51f
10:36 14 21 mph 1020.4mb 55f 51f
10:30 15 20 mph 1020.4mb 55f 51f
10:24 16 22 mph 1020.3mb 55f 51f
10:18 17 25 mph 1020.1mb 55f 51f
10:12 17 21 mph 1020.1mb 55f 51f
10:06 15 20 mph 1020.2mb 55f 52f
10:00 14 20 mph 1020.1mb 55f 52f
9:54 15 18 mph 1020.1mb 55f 52f
9:48 16 21 mph 1020.1mb 55f 52f
9:42 17 20 mph 1020.1mb 55f 52f
9:36 17 20 mph 1020mb 55f 52f
9:30 17 22 mph 1020mb 55f 52f
9:24 17 21 mph 1019.9mb 55f 52f
9:18 17 22 mph 1019.9mb 55f 52f
9:12 18 22 mph 1019.9mb 55f 52f
9:06 17 22 mph 1019.7mb 55f 52f
9:00 17 21 mph 1019.8mb 55f 52f
8:54 16 20 mph 1019.7mb 55f 52f
8:48 16 20 mph 1019.7mb 55f 52f
8:42 17 20 mph 1019.6mb 55f 52f
8:36 16 20 mph 1019.6mb 55f 52f
8:30 15 20 mph 1019.5mb 55f 52f
8:24 17 21 mph 1019.5mb 55f 52f
8:18 17 20 mph 1019.5mb 55f 52f
8:12 14 17 mph 1019.4mb 55f 52f
8:06 14 18 mph 1019.5mb 55f 52f
8:00 17 21 mph 1019.3mb 55f 52f
7:54 17 20 mph 1019.2mb 55f 52f
7:48 17 20 mph 1019.2mb 55f 52f
7:42 15 17 mph 1019.1mb 55f 52f
7:36 15 20 mph 1019.2mb 55f 52f
7:30 16 20 mph 1019.1mb 55f 53f
7:24 20 22 mph 1019.3mb 55f 53f
7:18 16 20 mph 1019.2mb 55f 53f
7:12 20 21 mph 1019mb 55f 53f
7:06 17 21 mph 1018.8mb 55f 53f
7:00 18 22 mph 1018.9mb 55f 53f
6:54 16 20 mph 1018.9mb 55f 53f
6:48 16 20 mph 1018.9mb 55f 53f
6:42 17 21 mph 1018.8mb 55f 53f
6:36 14 21 mph 1018.7mb 55f 53f
6:30 16 18 mph 1018.8mb 55f 53f
6:24 17 21 mph 1018.8mb 55f 53f
6:18 17 22 mph 1018.8mb 55f 53f
6:12 16 21 mph 1018.8mb 55f 53f
6:06 17 20 mph 1018.8mb 55f 53f
6:00 16 18 mph 1018.7mb 55f 53f
5:54 16 21 mph 1018.7mb 55f 53f
5:48 13 14 mph 1018.7mb 55f 53f
5:42 9 13 mph 1018.6mb 55f 53f
5:36 10 11 mph 1018.6mb 55f 53f
5:30 9 11 mph 1018.6mb 55f 53f
5:24 9 13 mph 1018.7mb 55f 53f
5:18 11 15 mph 1018.7mb 55f 53f
5:12 11 15 mph 1018.7mb 55f 53f
5:06 13 16 mph 1018.6mb 55f 53f
5:00 14 18 mph 1018.6mb 55f 53f
4:54 16 17 mph 1018.5mb 55f 53f
4:48 16 18 mph 1018.4mb 55f 53f
4:42 16 17 mph 1018.5mb 55f 53f
4:36 15 18 mph 1018.5mb 55f 53f
4:30 15 18 mph 1018.4mb 55f 53f
4:24 15 17 mph 1018.4mb 55f 53f
4:18 15 17 mph 1018.3mb 55f 53f
4:12 14 15 mph 1018.3mb 55f 53f
4:06 13 15 mph 1018.3mb 55f 53f
4:00 14 16 mph 1018.2mb 55f 53f
3:54 15 17 mph 1018.1mb 55f 53f
3:48 14 16 mph 1018.1mb 55f 54f
3:42 14 16 mph 1018.2mb 55f 54f
3:36 15 16 mph 1018mb 55f 54f
3:30 16 17 mph 1018mb 55f -
3:24 16 18 mph 1017.9mb 55f -
3:18 14 15 mph 1017.9mb 55f 54f
3:12 14 15 mph 1018mb 55f 54f
3:06 13 15 mph 1018.1mb 55f 54f
3:00 9 13 mph 1018.1mb 55f 54f
2:54 9 13 mph 1018.1mb 55f 54f
2:48 11 15 mph 1018.2mb 55f 54f
2:42 11 13 mph 1018mb 55f 54f
2:36 9 13 mph 1018mb 55f 54f
2:30 9 14 mph 1018mb 55f 54f
2:24 9 13 mph 1018mb 55f 54f
2:18 11 14 mph 1018mb 55f 54f
2:12 11 15 mph 1018.1mb 55f 54f
2:06 11 14 mph 1018.1mb 55f 54f
2:00 11 13 mph 1018.1mb 55f 54f
1:54 11 13 mph 1018.1mb 55f 54f
1:48 10 13 mph 1018.1mb 55f 54f
1:42 13 14 mph 1018.1mb 55f 54f
1:36 13 14 mph 1018.2mb 55f 54f
1:30 10 11 mph - 55f -
1:24 10 13 mph - 55f -
1:18 11 13 mph 1018.3mb 55f 54f
1:12 10 11 mph 1018.5mb 55f 54f
1:06 10 11 mph 1018.6mb 54f 54f
1:00 10 11 mph 1018.5mb 54f 54f
12:54 9 10 mph 1018.6mb 55f 54f
12:48 9 10 mph 1018.6mb 55f 53f
12:42 8 11 mph 1018.7mb 54f 53f
12:36 10 13 mph 1018.7mb 55f 53f
12:30 10 13 mph 1018.7mb 54f 53f
12:24 10 11 mph 1018.7mb 54f 53f
12:18 9 13 mph 1018.7mb 54f 53f
12:12 10 11 mph 1018.9mb 54f 53f
12:06 8 10 mph 1019.1mb 54f 53f
12:00 8 13 mph 1019.1mb 54f 53f
11:54 9 13 mph 1019.1mb 54f 53f
11:48 9 11 mph 1019.1mb 54f 53f
11:42 7 10 mph 1019.2mb 54f 53f
11:36 9 13 mph 1019.2mb 54f 53f
11:30 8 10 mph 1019.3mb 54f 53f
11:24 7 10 mph 1019.4mb 54f 53f
11:18 8 11 mph 1019.4mb 54f 53f
11:12 7 8 mph 1019.4mb 54f 53f
11:06 7 10 mph 1019.3mb 54f 52f
11:00 7 9 mph 1019.2mb 54f 52f
10:54 8 10 mph 1019.2mb 54f 52f
10:48 9 13 mph 1019mb 54f 52f
10:42 9 14 mph 1019mb 54f 52f
10:36 13 14 mph 1019mb 54f 51f
10:30 8 10 mph 1019mb 54f 51f
10:24 6 7 mph 1019mb 54f 50f
10:18 6 8 mph 1019mb 54f 50f
10:12 6 7 mph 1018.9mb 54f 49f
10:06 3 6 mph 1018.9mb 54f 49f
10:00 3 8 mph 1019.1mb 54f 49f
9:54 6 8 mph 1019.1mb 54f 48f
9:48 6 7 mph 1019.1mb 54f 48f
9:42 7 10 mph 1019mb 54f 48f
9:36 6 8 mph 1018.9mb 54f 48f
9:30 6 7 mph 1018.9mb 54f 48f
9:24 6 7 mph 1018.8mb 54f 48f
9:18 6 7 mph 1018.7mb 54f 48f
9:12 6 7 mph 1018.6mb 54f 47f
9:06 5 6 mph 1018.7mb 54f 47f
9:00 5 6 mph 1018.7mb 55f 47f
8:54 5 6 mph 1018.7mb 55f 47f
8:48 5 6 mph 1018.7mb 55f 47f
8:42 5 6 mph 1018.6mb 55f 47f
8:36 6
mph
1018.6mb 55f 47f
8:30 3 6 mph 1018.6mb 55f 47f
8:24 5 7 mph 1018.5mb 55f 47f
8:18 6 8 mph 1018.5mb 55f 46f
8:12 7 9 mph 1018.5mb 55f 46f
8:06 6 8 mph 1018.4mb 55f 46f
8:00 7 8 mph 1018.3mb 55f 47f
7:54 8 9 mph 1018.2mb 55f 47f
7:48 7 10 mph 1018.2mb 55f 47f
7:42 9 10 mph 1018.2mb 55f 47f
7:36 5 6 mph 1018.2mb 55f 48f
7:30 5 8 mph 1018mb 55f 48f
7:24 6 8 mph 1018mb 55f 48f
7:18 8 10 mph 1017.8mb 55f 48f
7:12 7 8 mph 1017.8mb 55f 49f
7:06 6 8 mph 1017.8mb 55f 49f
7:00 7 8 mph 1017.7mb 55f 49f
6:54 8 9 mph 1017.7mb 54f 49f
6:48 7 8 mph 1017.7mb 54f 49f
6:42 5 6 mph 1017.7mb 55f 49f
6:36 5 6 mph 1017.8mb 54f 49f
6:30 5
mph
1017.8mb 54f 49f
6:24 3 6 mph 1017.6mb 54f 49f
6:18 3 6 mph 1017.5mb 54f 49f
6:12  -  mph 1017.6mb 54f 49f
6:06  -  mph 1017.6mb 54f 48f
6:00  -  mph 1017.5mb 55f 48f
5:54  -  mph 1017.5mb - 48f
5:48  -  mph 1017.5mb 54f 48f
5:42  -  mph 1017.4mb 54f 48f
5:36  -  mph 1017.5mb 54f 48f
5:30  -  mph 1017.4mb 55f 48f
5:24  -  mph 1017.4mb 55f 48f
5:18  -  mph 1017.3mb 55f 48f
5:12  -  3 mph 1017.3mb 54f 48f
5:06 2 3 mph 1017.3mb 54f 48f
5:00  -  mph 1017.1mb 54f 48f
4:54  -  mph 1016.9mb 54f 48f
4:48  -  mph 1016.9mb 54f 48f
4:42  -  mph 1016.9mb 54f 48f
4:36  -  mph 1016.9mb 54f 48f
4:30  -  mph 1016.8mb 54f 48f
4:24  -  mph 1016.8mb 54f 48f
4:18  -  mph 1016.8mb 54f 48f
4:12  -  mph 1016.8mb 54f 49f
4:06  -  mph 1016.7mb 54f 49f
4:00  -  mph 1016.7mb 54f 49f
3:54  -  mph 1016.7mb 54f 49f
3:48  -  mph 1016.7mb 54f 49f
3:42  -  mph 1016.7mb 54f 49f
3:36  -  mph 1016.6mb 54f 49f
3:30  -  mph 1016.6mb 54f 49f
3:24  -  mph 1016.6mb 54f 49f
3:18  -  2 mph 1016.6mb 54f 49f
3:12 2 5 mph 1016.6mb 54f 49f
3:06 3
mph
1016.6mb 54f 49f
3:00  -  3 mph 1016.5mb 54f 49f
2:54 3 5 mph 1016.6mb 54f 49f
2:48 2 6 mph 1016.6mb 54f 49f
2:42 5 7 mph 1016.6mb 54f 49f
2:36 6 7 mph 1016.5mb 54f 50f
2:30 2 7 mph 1016.5mb 54f 49f
2:24 3 6 mph 1016.5mb 54f 49f
2:18 5 7 mph 1016.5mb 54f 49f
2:12 6
mph
1016.4mb 54f 49f
2:06 5 6 mph 1016.4mb 54f 50f
2:00 5 6 mph 1016.4mb 54f 50f
1:54 5 7 mph 1016.4mb 54f 50f
1:48 6 8 mph 1016.3mb 54f 49f
1:42 6 8 mph 1016.3mb 54f 49f
1:36 5 7 mph 1016.2mb 54f 49f
1:30 5 7 mph 1016.2mb 54f 49f
1:24 6 7 mph 1016.2mb 54f 49f
1:18 6 7 mph 1016.1mb 54f 49f
1:12 5 7 mph 1016mb 54f 49f
1:06 5 7 mph 1015.9mb 54f 49f
1:00 5 7 mph 1015.9mb 54f 49f
12:54 5 6 mph 1015.9mb 54f 49f
12:48 5 6 mph 1015.8mb 54f 49f
12:42 6 7 mph 1015.8mb 54f 49f
12:36 5 7 mph 1015.8mb 54f 50f
12:30 5 6 mph 1015.8mb 54f 50f
12:24 5 6 mph 1015.8mb 54f 50f
12:18 6 8 mph 1015.8mb 54f 50f
12:12 5 7 mph 1015.8mb 54f 50f
12:06 5 6 mph 1015.7mb 54f 50f
12:00 5 6 mph 1015.7mb 54f 50f
Mo 10/20 11:54 5 7 mph 1015.7mb 54f 49f
11:48 6 7 mph 1015.7mb 54f 49f
11:42 7 8 mph 1015.6mb 54f 49f
11:36 6 7 mph 1015.4mb 54f 50f
11:30 7 8 mph 1015.4mb 55f 50f
11:24 6 8 mph 1015.3mb 55f 50f
11:18 6 9 mph 1015.3mb 55f 49f
11:12 6 8 mph 1015.2mb 55f 49f
11:06 7 9 mph 1015.2mb 55f 49f
11:00 6 9 mph 1015.3mb - 48f
10:54 6 9 mph 1015.2mb 55f 49f
10:48 6 9 mph 1015.2mb 55f 49f
9:54  -  mph 1014.8mb 54f 49f
9:48  -  mph 1014.8mb 54f 49f
9:24  -  mph - 54f -
9:18  -  mph - 54f -
9:12 6 8 mph - - -
9:06 6 8 mph - - -
9:00 7 10 mph - - -
8:54 7 10 mph - - -
8:48  -  mph - 54f 47f
8:42  -  mph - 54f 47f
8:36  -  mph - 54f 47f
8:30 2 6 mph 1014.6mb 55f 47f
8:24 2 5 mph 1014.6mb 55f 47f
8:18 3 7 mph 1014.7mb 55f 47f
8:12 5 9 mph 1014.6mb 55f 47f
8:06 5 7 mph 1014.6mb 55f 48f
8:00 6 10 mph 1014.6mb 55f 48f
7:54 5 8 mph 1014.6mb 55f 47f
7:48 5 7 mph 1014.5mb 55f 47f
7:42 3 7 mph 1014.5mb 55f 47f
7:36 3 7 mph 1014.4mb 54f 47f
7:30 3 6 mph 1014.4mb 55f 47f
7:24 3 6 mph 1014.3mb 55f 47f
7:18 3 6 mph 1014.2mb 55f 47f
7:12 3 6 mph 1014.3mb 55f 47f
7:06 3 6 mph 1014.3mb 55f 47f
7:00 3 6 mph 1014.1mb 55f 47f
6:54 5 6 mph 1014mb 55f 47f
6:48 3 8 mph 1014mb 55f 47f
6:42 5 7 mph 1013.9mb 55f 47f
6:36  -  5 mph 1013.8mb 55f 47f
6:30 3 6 mph 1013.8mb 55f 47f
6:24  -  5 mph 1013.7mb 55f 47f
6:18 2 6 mph 1013.8mb 55f 47f
6:12 3 7 mph 1013.8mb 55f 47f
6:06 3 6 mph 1013.8mb 55f 47f
6:00 2 6 mph 1013.8mb 55f 47f
5:54 3 6 mph 1013.6mb 55f 47f
5:48 6 8 mph 1013.5mb 54f 47f
5:42 6 8 mph 1013.5mb 54f 47f
5:36 3 7 mph 1013.4mb 54f 48f
5:30 2 6 mph 1013.3mb 54f 48f
5:24 3 6 mph 1013.3mb 54f 48f
5:18 5 8 mph 1013.2mb 54f 48f
5:12 7 8 mph 1013.1mb 54f 49f
5:06 5 6 mph 1013mb 54f 49f
5:00 3 10 mph 1012.9mb 54f 49f
4:54 6 11 mph 1012.9mb 54f 49f
4:48 9 13 mph 1012.8mb 54f 49f
4:42 8 13 mph 1012.8mb 54f 49f
4:36 6 11 mph 1012.8mb 54f 49f
4:30 8 15 mph 1012.7mb 54f 49f
4:24 7 14 mph 1012.8mb 55f 50f
4:18 9 11 mph 1012.7mb 54f 50f
4:06 7 14 mph 1012.7mb 54f 50f
4:00 8 14 mph 1012.6mb 54f 50f
3:54 9 13 mph 1012.6mb 54f 50f
3:48 7 14 mph 1012.6mb 54f 50f
3:42 11 15 mph 1012.6mb 55f 49f
3:36 9 16 mph 1012.6mb 55f 49f
3:30 9 11 mph 1012.6mb 55f 50f
3:24 8 15 mph 1012.6mb 55f 50f
3:18 11 15 mph 1012.5mb 55f 49f
3:12 7 11 mph 1012.6mb 55f 49f
3:06 7 20 mph 1012.6mb 55f 49f
3:00 9 14 mph 1012.5mb 55f 49f
2:54 9 14 mph 1012.6mb 55f 49f